Printer-friendly version

IAU Minor Planet Center

Minor Planet Center

MPEC 2000-X19: 2000 WO148

The following Minor Planet Electronic Circular may be linked-to from your own Web pages, but must not otherwise be redistributed electronically.


Read MPEC 2000-X18 Read MPEC 2000-X20


M.P.E.C. 2000-X19                                Issued 2000 Dec. 3, 23:29 UT

     The Minor Planet Electronic Circulars contain information on unusual
         minor planets and routine data on comets.  They are published
   on behalf of Commission 20 of the International Astronomical Union by the
          Minor Planet Center, Smithsonian Astrophysical Observatory,
                          Cambridge, MA 02138, U.S.A.

             Prepared using the Tamkin Foundation Computer Network

                              MPC@CFA.HARVARD.EDU
          URL http://cfa-www.harvard.edu/iau/mpc.html  ISSN 1523-6714

                                  2000 WO148

Observations:
     K00WE8O* C2000 11 29.21019 01 21 29.83 -11 34 14.7          17.3 R      699
     K00WE8O  C2000 11 29.22271 01 21 29.42 -11 34 17.7                      699
     K00WE8O  C2000 11 29.26215 01 21 27.97 -11 34 26.2                      699
     K00WE8O  C2000 11 29.27469 01 21 27.60 -11 34 29.8                      699
     K00WE8O  C2000 12 01.13017 01 20 50.99 -11 40 30.7          18.7 R      734
     K00WE8O  C2000 12 01.13521 01 20 50.83 -11 40 30.4          19.3 R      734
     K00WE8O  C2000 12 01.14049 01 20 50.66 -11 40 32.3          19.5 R      734
     K00WE8O  C2000 12 01.14549 01 20 50.67 -11 40 33.5          19.0 R      734
     K00WE8O  C2000 12 01.15045 01 20 50.35 -11 40 33.8          19.1 R      734
     K00WE8O  C2000 12 01.15543 01 20 50.36 -11 40 34.7          19.2 R      734
     K00WE8O  C2000 12 01.73154 01 20 42.57 -11 41 57.7          18.0 R      046
     K00WE8O  C2000 12 01.73506 01 20 42.45 -11 41 59.2                      046
     K00WE8O  C2000 12 01.73671 01 20 42.42 -11 41 59.1                      046
     K00WE8O  C2000 12 01.74012 01 20 42.34 -11 41 59.4                      046
     K00WE8O  C2000 12 01.74309 01 20 42.25 -11 41 59.2                      046
     K00WE8O  C2000 12 01.74484 01 20 42.17 -11 42 00.2          18.2 R      046
     K00WE8O  C2000 12 03.21309 01 20 24.18 -11 44 22.2          21.1 V      734
     K00WE8O  C2000 12 03.22781 01 20 23.88 -11 44 21.7          21.1 V      734

Observer details:
046 Klet.  Observers J. Ticha, M. Tichy, P. Jelinek.  0.57-m f/5.2
    reflector + CCD.
699 Lowell Observatory-LONEOS.  Observer B. W. Koehn.  0.59-m LONEOS Schmidt
    + CCD.
734 Farpoint Observatory.  Observer G. Hug.  0.30-m Schmidt-Cassegrain + CCD.

Orbital elements:
2000 WO148                                                           PHA 0.043
Epoch 2000 Nov. 12.0 TT = JDT 2451860.5                 Spahr
M 327.90927              (2000.0)            P               Q
n   0.45040278     Peri.  324.93116     -0.38240155     -0.92310324
a   1.6855256      Node   147.49660     +0.86408711     -0.37283158
e   0.3930164      Incl.    4.33463     +0.32729577     -0.09421796
P   2.19           H   20.3           G   0.15
From 18 observations 2000 Nov. 29-Dec. 3.

Ephemeris:
2000 WO148               a,e,i = 1.69, 0.39, 4                   q = 1.0231
Date    TT    R. A. (2000) Decl.     Delta      r     Elong.  Phase     V
2000 11 22    01 25.97   -10 47.3    0.286    1.200   132.7    37.2    19.5
2000 12 02    01 20.63   -11 42.1    0.272    1.153   121.9    46.6    19.5
2000 12 12    01 21.86   -11 28.1    0.258    1.110   112.8    54.8    19.6
2000 12 22    01 30.07   -10 10.3    0.243    1.075   105.6    61.8    19.6
2001 01 01    01 45.63   -07 49.2    0.225    1.048   100.4    67.4    19.5
2001 01 11    02 09.27   -04 20.0    0.205    1.030    97.4    71.2    19.4
2001 01 21    02 42.60   +00 30.1    0.183    1.023    97.2    72.6    19.2
2001 01 31    03 28.99   +06 55.5    0.164    1.027   100.3    70.7    18.9
2001 02 10    04 31.94   +14 33.3    0.153    1.042   107.1    64.8    18.6
2001 02 20    05 49.81   +21 32.0    0.156    1.067   116.2    56.2    18.5
2001 03 02    07 10.50   +25 27.6    0.177    1.101   124.4    48.0    18.6
2001 03 12    08 19.26   +26 01.8    0.214    1.142   129.3    42.3    18.9
2001 03 22    09 11.50   +24 36.7    0.266    1.188   131.0    39.3    19.4
2001 04 01    09 50.73   +22 20.7    0.330    1.239   130.4    37.9    19.9
2001 04 11    10 21.39   +19 46.9    0.405    1.292   128.2    37.5    20.4
2001 04 21    10 46.64   +17 09.0    0.490    1.348   125.2    37.6    20.9
2001 05 01    11 08.64   +14 31.5    0.584    1.404   121.5    37.7    21.4
2001 05 11    11 28.63   +11 56.6    0.688    1.461   117.4    37.9    21.8

Timothy B. Spahr             (C) Copyright 2000 MPC           M.P.E.C. 2000-X19

Read MPEC 2000-X18 Read MPEC 2000-X20


Our Web policy. Index to the CBAT/MPC/ICQ pages.


Valid HTML 4.01!